www.pogodaiklimat.ru

Погода и климат >> Архив погоды >> Норвегия >> Tafjord


ПОГОДА в Tafjord

  • Прогноз погоды в Tafjord
  • Монитор погоды в Tafjord
  • Климат города

АРХИВ ПОГОДЫ в Tafjord

Время (UTC), дата Ветер
(напр.,м/с)
 
Видим.   Явления Облачность Т
(С)
Тd
(С)
f
(%)
Тe
(С)
Тes
(С)
Комфортность P
(гПа)
Po
(гПа)
Тmin
(С)
Tmax
(С)
R
(мм)
R24
(мм)
S
(см)
23 17.04 СВ 1
{3}
н/о н/о +9.2 +3.8 69 +9 +9 1014.9 1012.8
22 17.04 ЮВ 2
{5}
н/о н/о +11.8 +2.8 54 +11 +11 1014.6 1012.5
00 18.04 ЮЗ 1
{10}
н/о н/о +8.6 +4.1 73 +8 +8 1015.2 1013.1 0.2
01 18.04 СЗ 1
{2}
н/о н/о +6.9 +3.9 81 +6 +6 1015.8 1013.7
02 18.04 ЮЗ 1
{2}
н/о н/о +7.1 +4.3 82 +6 +6 1016.4 1014.3
03 18.04 С 1
{2}
н/о н/о +6.8 +4.5 85 +6 +6 1017.0 1014.9
05 18.04 ЮВ 1
{2}
н/о н/о +6.6 +5.4 92 +5 +5 1018.4 1016.2
04 18.04 С 1
{2}
н/о н/о +6.4 +4.7 89 +5 +5 1018.2 1016.0 0.2
06 18.04 Ю 1
{3}
н/о н/о +7.1 +5.4 89 +6 +6 1019.2 1017.0 +6.3 +14.7
07 18.04 СЗ 1
{3}
н/о н/о +8.1 +5.2 82 +7 +7 1019.8 1017.7
08 18.04 СЗ 1
{3}
н/о н/о +9.3 +5.7 78 +9 +9 1020.1 1018.0
09 18.04 В 1
{4}
н/о н/о +10.7 +5.5 70 +11 +11 1020.7 1018.6
11 18.04 С 2
{3}
н/о н/о +11.7 +4.5 61 +11 +11 1021.6 1019.5
10 18.04 СЗ 1
{4}
н/о н/о +11.1 +5.0 66 +11 +11 1021.3 1019.2
12 18.04
{5}
н/о н/о +11.3 +4.8 64 1023.0 1020.9
13 18.04 ЮВ 1
{4}
н/о н/о +13.6 +5.3 57 +14 +14 1023.3 1021.2
14 18.04 СЗ 1
{3}
н/о н/о +12.7 +5.2 60 +13 +13 1023.9 1021.8
15 18.04 штиль 0
{3}
н/о н/о +12.4 +5.3 62 +12 +12 1024.3 1022.2
17 18.04 СЗ 1
{3}
н/о н/о +11.4 +5.1 65 +11 +11 1025.1 1023.0
16 18.04 З 1
{3}
н/о н/о +12.0 +5.0 62 +12 +12 1025.0 1022.9
18 18.04 З 1
{4}
н/о н/о +10.8 +4.9 67 +11 +11 1025.8 1023.7 +7.1 +13.8
19 18.04 СЗ 1
{2}
н/о н/о +10.4 +4.8 68 +10 +10 1026.1 1024.0
20 18.04 Ю 1
{2}
н/о н/о +9.3 +3.7 68 +9 +9 1027.1 1024.9
21 18.04 ЮВ 2
{4}
н/о н/о +9.1 +3.1 66 +8 +8 1026.6 1024.5
23 18.04 С 1
{2}
н/о н/о +6.9 +3.3 78 +6 +6 1027.8 1025.6
22 18.04 СЗ 1
{2}
н/о н/о +7.2 +3.5 77 +6 +6 1027.5 1025.3
00 19.04 В 1
{4}
н/о н/о +6.0 +3.0 81 +5 +5 1027.7 1025.5
01 19.04 н/о
02 19.04 СЗ 1
{2}
н/о н/о +6.2 +3.2 81 +5 +5 1027.3 1025.1
03 19.04 С 1
{3}
н/о н/о +5.8 +3.2 83 +5 +5 1027.0 1024.8
05 19.04 С 2
{4}
н/о н/о +7.1 +3.9 80 +5 +5 1025.7 1023.5
04 19.04 ЮЗ 1
{2}
н/о н/о +6.3 +3.8 84 +5 +5 1026.3 1024.1
06 19.04 СЗ 1
{5}
н/о н/о +7.8 +3.9 76 +7 +7 1025.7 1023.5 +5.4 +10.9
07 19.04 СВ 2
{6}
н/о н/о +10.1 +4.3 67 +9 +9 1025.2 1023.1
08 19.04 ЮВ 8
{14}
н/о н/о +15.3 +4.1 47 +14 +14 1025.0 1022.9 0.2
09 19.04 ЮВ 7
{13}
н/о н/о +15.4 +3.9 46 +14 +14 1024.7 1022.6
11 19.04 ЮВ 7
{12}
н/о н/о +17.4 +4.0 41 +16 +16 1023.6 1021.5
10 19.04 ЮВ 7
{14}
н/о н/о +16.3 +4.1 44 +15 +15 1024.5 1022.4
12 19.04 Ю 5
{14}
н/о н/о +19.9 +4.0 35 +20 +20 1022.7 1020.6
13 19.04 ЮВ 6
{12}
н/о н/о +19.7 +3.8 35 +20 +20 1022.0 1019.9
14 19.04 Ю 5
{11}
н/о н/о +20.4 +2.3 30 +21 +21 комфорт 1021.5 1019.4
15 19.04 н/о
17 19.04 Ю 4
{11}
н/о н/о +18.9 +3.5 36 +19 +19 1020.3 1018.2
16 19.04 Ю 5
{12}
н/о н/о +19.3 +2.7 33 +19 +19 1020.8 1018.7
18 19.04 н/о
19 19.04 С 2
{3}
н/о н/о +15.0 +4.7 50 +15 +15 1019.1 1017.0
20 19.04 С 2
{3}
н/о н/о +15.1 +5.1 51 +15 +15 1018.9 1016.8
21 19.04 С 2
{3}
н/о н/о +14.1 +5.0 54 +14 +14 1018.6 1016.5
23 19.04 н/о
22 19.04 З 1
{5}
н/о н/о +14.5 +4.8 52 +15 +15 1018.2 1016.1
00 20.04 С 1
{7}
н/о н/о +12.1 +7.6 74 +12 +12 1018.6 1016.5
01 20.04 В 1
{2}
н/о н/о +10.8 +8.6 86 +10 +10 1018.7 1016.6
02 20.04 СВ 1
{4}
н/о н/о +10.5 +7.2 80 +10 +10 1018.3 1016.2 0.1
03 20.04 н/о +10.3 +7.5 83 +27 +27 очень
душно
1017.7 1015.6
05 20.04 С 2
{4}
н/о н/о +9.3 +6.6 83 +8 +8 1016.9 1014.8
04 20.04 н/о
06 20.04 Ю 2
{4}
н/о н/о +9.4 +6.7 83 +8 +8 1016.5 1014.4 +8.8 +16.0
07 20.04 штиль 0
{4}
н/о н/о +9.7 +7.1 84 +9 +9 1016.0 1013.9
08 20.04 С 2
{5}
н/о н/о +9.1 +6.6 84 +7 +7 1016.0 1013.9
09 20.04 СВ 1
{5}
н/о н/о +10.3 +7.0 80 +10 +10 1015.4 1013.3
11 20.04 С 2
{3}
н/о н/о +9.7 +7.3 85 +8 +8 1014.3 1012.2 0.1
10 20.04 С 1
{6}
н/о н/о +10.5 +7.0 79 +10 +10 1014.6 1012.5
12 20.04 ЮЗ 1
{6}
н/о н/о +9.4 +8.2 92 +9 +9 1014.0 1011.9 1
13 20.04 С 2
{3}
н/о н/о +11.3 +9.2 87 +10 +10 1013.4 1011.3 0.1
14 20.04 С 2
{5}
н/о н/о +11.8 +8.1 78 +11 +11 1011.7 1009.6
15 20.04 СВ 2
{10}
н/о н/о +10.9 +7.6 80 +10 +10 1012.4 1010.3 0.7
17 20.04 СЗ 2
{3}
н/о н/о +9.4 +7.4 87 +8 +8 1011.1 1009.0 0.1
16 20.04 З 2
{4}
н/о н/о +10.3 +8.2 87 +9 +9 1011.8 1009.7 0.5
18 20.04 н/о 1011.6 1009.5
19 20.04 штиль 0
{3}
н/о н/о +8.3 +6.8 90 +7 +7 1011.2 1009.1 0.2
20 20.04 Ю 1
{2}
н/о н/о +7.4 +6.5 94 +6 +6 1011.4 1009.3 0.1
21 20.04 С 1
{2}
н/о н/о +6.8 +6.1 95 +6 +6 1011.2 1009.1 0.1
23 20.04 Ю 1
{2}
н/о н/о +6.2 +5.5 95 +5 +5 1011.5 1009.4
22 20.04 В 1
{2}
н/о н/о +6.5 +5.8 95 +5 +5 1011.6 1009.5
00 21.04 Ю 1
{3}
н/о н/о +6.0 +4.7 91 +5 +5 1010.7 1008.6
01 21.04 СВ 2
{9}
н/о н/о +7.7 +3.6 75 +6 +6 1010.8 1008.7
02 21.04 Ю 1
{3}
н/о н/о +6.9 +3.7 80 +6 +6 1011.0 1008.9
03 21.04 ЮВ 1
{3}
н/о н/о +6.4 +4.6 88 +5 +5 1011.5 1009.4 0.1
05 21.04 З 1
{2}
н/о н/о +5.4 +4.5 94 +4 +4 1012.9 1010.7 0.5
04 21.04 Ю 1
{4}
н/о н/о +5.8 +4.5 91 +5 +5 1012.6 1010.5 2
06 21.04 штиль 0
{9}
н/о н/о +5.6 +4.7 94 +4 +4 1013.4 1011.2 +5.3 +10.3 0.2
07 21.04 СВ 1
{2}
н/о н/о +6.2 +4.9 91 +5 +5 1013.7 1011.6 0.2
08 21.04 В 1
{2}
н/о н/о +7.2 +5.2 87 +6 +6 1014.1 1012.0 0.2
09 21.04
{5}
н/о н/о +8.0 +4.6 79 1014.8 1012.7 0.1
11 21.04 С 4
{9}
н/о н/о +8.5 +4.3 75 +5 +5 1015.6 1013.5 0.1
10 21.04
{7}
н/о н/о +8.4 +4.6 77 1015.2 1013.1
12 21.04 С 4
{9}
н/о н/о +9.2 +3.4 67 +7 +7 1015.7 1013.6
13 21.04 С 6
{9}
н/о н/о +9.5 +3.1 64 +6 +6 1016.4 1014.3
14 21.04 С 5
{9}
н/о н/о +9.8 +2.9 62 +7 +7 1016.7 1014.6
15 21.04 С 4
{8}
н/о н/о +10.0 +1.9 57 +8 +8 1017.1 1015.0
17 21.04 С 3
{5}
н/о н/о +10.4 +0.2 49 +9 +9 1017.4 1015.3
16 21.04 С 3
{6}
н/о н/о +9.9 +1.3 55 +8 +8 1017.2 1015.1
18 21.04 С 3
{9}
н/о н/о +9.9 +0.5 52 +8 +8 1017.3 1015.2 +5.6 +10.5
19 21.04 штиль 0
{3}
н/о н/о +7.4 +2.3 70 +7 +7 1017.3 1015.2
20 21.04 штиль 0
{2}
н/о н/о +5.7 +2.4 79 +5 +5 1017.7 1015.5
21 21.04 н/о +6.1 1017.8 1015.7
23 21.04 Ю 1
{2}
н/о н/о +3.4 +1.8 89 +2 +2 1018.1 1015.9
22 21.04 штиль 0
{2}
н/о н/о +4.6 +2.6 87 +4 +4 1018.2 1016.0
00 22.04 штиль 0
{3}
н/о н/о +2.5 +1.0 90 +1 +1 1017.9 1015.7
01 22.04 Ю 1
{2}
н/о н/о +2.3 +1.3 93 +1 +1 1017.6 1015.4
02 22.04 СЗ 1
{1}
н/о н/о +2.3 +1.1 92 +1 +1 1017.2 1015.0
03 22.04 Ю 1
{2}
н/о н/о +2.7 +1.4 91 +1 +1 1016.9 1014.7
05 22.04 штиль 0
{2}
н/о н/о +3.5 +1.9 89 +2 +2 1016.0 1013.8
04 22.04 ЮЗ 1
{2}
н/о н/о +3.2 +1.6 89 +2 +2 1016.3 1014.1
06 22.04 СЗ 1
{3}
н/о н/о +4.7 +1.7 81 +3 +3 1015.6 1013.4 +2.0 +9.9
07 22.04 С 2
{3}
н/о н/о +5.6 +1.9 77 +3 +3 1014.6 1012.4
08 22.04 СЗ 2
{3}
н/о н/о +6.2 +2.3 76 +4 +4 1013.9 1011.8
09 22.04 СЗ 2
{3}
н/о н/о +7.4 +2.5 71 +6 +6 1013.1 1011.0
11 22.04 С 2
{4}
н/о н/о +9.8 +1.5 56 +9 +9 1011.3 1009.2
10 22.04
{3}
н/о н/о +9.8 +2.7 61 1012.1 1010.0
12 22.04 С 2
{4}
н/о н/о +10.7 +2.6 57 +10 +10 1010.3 1008.2
13 22.04 Ю 5
{9}
н/о н/о +14.9 -3.9 27 +14 +14 1009.5 1007.4
14 22.04 Ю 3
{10}
н/о н/о +15.8 -4.1 25 +16 +16 1008.7 1006.6
15 22.04 Ю 5
{9}
н/о н/о +15.2 -4.6 25 +14 +14 1007.8 1005.7
17 22.04 Ю 3
{7}
н/о н/о +14.2 -3.1 30 +14 +14 1006.3 1004.2
16 22.04 Ю 4
{9}
н/о н/о +14.7 -4.5 26 +14 +14 1007.3 1005.2
18 22.04 Ю 8
{13}
н/о н/о +13.6 -0.4 38 +11 +11 1006.1 1004.0 +4.7 +16.2
19 22.04 Ю 4
{12}
н/о н/о +12.9 +0.3 42 +11 +11 1005.9 1003.8
20 22.04 Ю 4
{8}
н/о н/о +13.0 +1.1 44 +12 +12 1005.0 1002.9
21 22.04 Ю 5
{9}
н/о н/о +12.9 +1.3 45 +11 +11 1004.7 1002.6
23 22.04 Ю 7
{12}
н/о н/о +13.6 +1.3 43 +11 +11 1002.8 1000.7 0.3
22 22.04 Ю 4
{11}
н/о н/о +13.0 +1.1 44 +12 +12 1003.7 1001.6 0.1
00 23.04 Ю 7
{12}
н/о н/о +13.2 +1.6 45 +11 +11 1002.3 1000.2
01 23.04 ЮВ 6
{10}
н/о н/о +13.2 +1.9 46 +11 +11 1000.8 998.7
02 23.04 Ю 4
{12}
н/о н/о +13.1 +1.8 46 +12 +12 999.9 997.8
03 23.04 Ю 3
{12}
н/о н/о +12.9 +2.2 48 +12 +12 999.4 997.3
05 23.04 Ю 5
{9}
н/о н/о +12.7 +2.0 48 +11 +11 998.0 995.9
04 23.04 ЮВ 4
{10}
н/о н/о +13.0 +1.7 46 +12 +12 998.6 996.5
06 23.04 ЮВ 4
{12}
н/о н/о +13.1 +1.8 46 +12 +12 997.6 995.5 +12.5 +13.7
07 23.04 ЮВ 3
{10}
н/о н/о +13.0 +1.7 46 +12 +12 997.3 995.2
08 23.04 ЮВ 2
{8}
н/о н/о +12.8 +1.8 47 +12 +12 997.0 994.9
09 23.04 ЮВ 3
{8}
н/о н/о +12.8 +1.5 46 +12 +12 996.7 994.6
11 23.04 ЮВ 3
{9}
н/о н/о +13.1 +0.5 42 +12 +12 996.2 994.1
10 23.04 ЮВ 5
{9}
н/о н/о +13.1 +0.8 43 +11 +11 996.3 994.2
12 23.04 ЮВ 4
{10}
н/о н/о +12.8 +0.6 43 +11 +11 996.1 994.0
13 23.04 ЮВ 4
{8}
н/о н/о +12.8 +1.5 46 +11 +11 996.1 994.0
14 23.04 ЮВ 2
{6}
н/о н/о +13.1 +1.2 44 +13 +13 995.8 993.7
15 23.04 Ю 2
{5}
н/о н/о +13.3 +1.0 43 +13 +13 995.2 993.1
17 23.04 Ю 2
{8}
н/о н/о +12.6 +1.0 45 +12 +12 994.4 992.3
16 23.04 ЮВ 5
{9}
н/о н/о +13.2 +0.6 42 +12 +12 994.5 992.4
18 23.04 ЮВ 4
{9}
н/о н/о +11.7 +1.4 49 +10 +10 994.5 992.4 +11.6 +14.0
19 23.04 ЮВ 5
{10}
н/о н/о +11.0 +2.1 54 +9 +9 994.9 992.8
20 23.04 Ю 4
{9}
н/о н/о +10.5 +1.9 55 +8 +8 994.7 992.6
21 23.04 Ю 4
{7}
н/о н/о +10.8 +1.1 51 +9 +9 994.5 992.4 0.1
23 23.04 ЮВ 6
{8}
н/о н/о +10.8 +0.6 49 +8 +8 994.4 992.3
22 23.04 ЮВ 4
{7}
н/о н/о +10.9 +0.6 49 +9 +9 994.4 992.3
00 24.04 н/о +8.4 +13 +13 994.5 992.4
01 24.04 С 2
{7}
н/о н/о +8.9 +2.0 62 +7 +7 994.3 992.2
02 24.04 В 1
{2}
н/о н/о +7.7 +2.6 70 +7 +7 994.5 992.4
03 24.04 Ю 1
{3}
н/о н/о +7.1 +2.8 74 +6 +6 994.2 992.1
05 24.04 СВ 1
{2}
н/о н/о +7.3 +2.6 72 +7 +7 993.4 991.3
04 24.04 С 1
{4}
н/о н/о +7.0 +2.1 71 +6 +6 993.8 991.7
06 24.04 Ю 2
{7}
н/о н/о +9.5 +1.4 57 +8 +8 993.1 991.0 +6.9 +11.7
07 24.04 н/о
08 24.04 С 1
{4}
н/о н/о +10.1 +0.7 52 +10 +10 992.3 990.2
09 24.04 ЮВ 3
{8}
н/о н/о +11.4 -0.4 44 +10 +10 992.4 990.3
11 24.04 ЮВ 5
{10}
н/о н/о +11.8 -1.0 41 +10 +10 992.3 990.2
10 24.04 ЮВ 6
{11}
н/о н/о +11.7 -0.1 44 +9 +9 992.3 990.2
12 24.04 С 1
{11}
н/о н/о +12.3 -0.5 41 +13 +13 992.5 990.4
13 24.04 З 3
{7}
н/о н/о +13.0 -2.4 34 +12 +12 992.4 990.3
14 24.04 С 4
{8}
н/о н/о +10.6 +0.9 51 +9 +9 992.9 990.8 0.1
15 24.04 С 3
{6}
н/о н/о +10.8 +0.3 48 +9 +9 993.0 990.9
17 24.04 СВ 2
{7}
н/о н/о +8.9 +1.6 60 +7 +7 994.2 992.1
18 24.04 СЗ 1
{8}
н/о н/о +7.7 +4.5 80 +7 +7 994.5 992.4 +7.6 +13.2
19 24.04 штиль 0
{1}
н/о н/о +7.0 +5.0 87 +6 +6 994.9 992.8
20 24.04 ЮВ 1
{1}
н/о н/о +6.4 +5.2 92 +5 +5 995.4 993.3 0.1

 

Местоположение метеостанции Tafjord (Норвегия): широта 62.23 долгота 7.42 высота над уровнем моря 11 м.

В архиве по умолчанию представлена погода в Tafjord за последнюю неделю. Архивные данные за месяц целиком и за предыдущие месяцы, начиная с января 2011 года, Вы можете получить, выбрав интересующий диапазон дат из раскрывающегося списка и нажав кнопку "Ввод!".


*Определитесь, кто Вы:
робот инопланетянин человек

Внимание! Время в таблицах - всемирное. Для получения местного времени необходимо прибавить поправку, которая в Tafjord равна 1 ч.

Смотрите также архив погоды в соседних городах и на ближайших метеорологических станциях:

Погода в Grotli III (Норвегия) (26 км)
Погода в Mannen (Норвегия) (31 км)
Погода в Marstein (Норвегия) (33 км)
Погода в Bjorli (Норвегия) (41 км)
Погода в Lebergsfjellet (Норвегия) (43 км)
Погода в Brata (Норвегия) (44 км)
Погода в Stryn-Kroken (Норвегия) (57 км)
Погода в Rekdal (Норвегия) (58 км)
Погода в Molde Lufthavn (Норвегия) (58 км)
Погода в Alesund IV (Норвегия) (68 км)

Пояснения к столбцам:

Ветер - указаны скорость ветра в м/с - средняя за 10 мин, порывы в срок и между сроками (в фигурных скобках) и направление, откуда дует ветер: С - северный, СВ - северо-восточный, В - восточный, ЮВ - юго-восточный, Ю - южный, ЮЗ - юго-западный, З - западный, СЗ - северо-западный.
Видимость - горизонтальная дальность видимости в метрах или километрах. При видимости от 1 до 10 км при отсутствии осадков обычно наблюдается дымка, при ухудшении видимости до 1 км и менее - туман. В сухую погоду видимость может ухудшаться дымом, пылью или мглою.
Явления - указаны атмосферные явления, наблюдавшиеся в срок или в последний час перед сроком; фигурными скобками обозначены явления, наблюдавшиеся между сроками (за 1-3 часа до срока); квадратными скобками обозначены град или гололедные отложения с указанием их диаметра в мм.
Облачность - указаны через наклонную черту общая и нижняя облачность в баллах и высота нижней границы облаков в метрах; квадратными скобками обозначены формы облаков: Ci - перистые, Cs - перисто-слоистые, Cc - перисто-кучевые, Ac - высококучевые, As - высокослоистые, Sc - слоисто-кучевые, Ns - слоисто-дождевые, Cu - кучевые, Cb - кучево-дождевые. Подробнее классификацию облаков см. в Атласе облаков (PDF).
T - Температура воздуха - температура, измеренная на высоте 2 м над землей.
Td - Температура точки росы - температура, при понижении до которой содержащийся в воздухе водяной пар достигнет насыщения.
f - Относительная влажность воздуха - влажноcть воздуха, измеренная на высоте 2 м над землей.
Te - Эффективная температура - температура, которую ощущает одетый по сезону человек в тени. Характеристика душности погоды. При расчете учитывается влияние влажности воздуха и скорости ветра на теплоощущения человека.
Tes - Эффективная температура на солнце - температура, которую ощущает человек, с поправкой на солнечный нагрев. Характеристика знойности погоды. Зависит от высоты солнца над горизонтом, облачности и скорости ветра. Ночью, в пасмурную погоду, а также при ветре 12 м/с и более поправка равна нулю.
P - Атмосферное давление - приведенное к уровню моря атмосферное давление.
Po - Атмосферное давление - измеренное на уровне метеостанции атмосферное давление.
Tmin - Минимальная температура - минимум температуры воздуха на высоте 2 м над землей.
Tmax - Максимальная температура - максимум температуры воздуха на высоте 2 м над землей.
R - Количество осадков - Количество выпавших осадков за период времени, мм. При наведении курсора мыши на число - период времени, за который выпало указанное количество осадков.
R24 - Количество осадков - Количество выпавших осадков за 24 часа, мм.
S - Снежный покров - Высота снежного покрова, см. При наведении курсора мыши на число - состояние снежного покрова и степень покрытия местности в баллах.